Home > Weather > Rae-Edzo > Past weeks

Flag for Canada Weather for the Past 2 Weeks in Rae-Edzo, Northwest Territories, Canada

Now
1 °F

Frigid.


Feels Like: -12 °F
Forecast: -18 / -1 °F
Wind: 7 mph from Northeast

Location: Lac La Martre

Current Time: Feb 9, 2016 at 4:24:30 PM

Latest Report: Feb 9, 2016 at 3:00 PM


Visibility: N/A

Pressure: 30.38 "Hg

Humidity: 81%

Dew point: -3 °F

Location of Rae-EdzoLocation

Historic Weather in Rae-Edzo — Graph

°F

Rae-Edzo Temperature Yesterday

Maximum temperature yesterday: -2 °F (at 1:00 PM)
Minimum temperature yesterday: -11 °F (at 9:00 AM)
Average temperature yesterday: -7 °F

High & Low Weather Summary for the Past Weeks

 TemperatureHumidityPressure
High11 °F (Jan 28, 1:00 PM)95% (Jan 29, 6:00 PM)30.43 "Hg (Jan 29, 6:00 PM)
Low-39 °F (Feb 4, 8:00 AM)58% (Feb 4, 2:00 AM)29.16 "Hg (Jan 28, 6:00 PM)
Average-7 °F80%29.95 "Hg
* Reported Jan 25 2:00 PM — Feb 9 2:00 PM, Rae-Edzo, Weather by CustomWeather, © 2016

Note: Actual official high and low records may vary slightly from our data, if they occured in-between our weather recording intervals... More about our weather records

Advertising

Rae-Edzo Weather History for the Previous 24 Hours

 ConditionsComfort  
Time TempWeatherWind HumidityBarometerVisibility
2:00 PM
Tue, Feb 9
-1 °FFrigid.8 mph81%30.36 "HgN/A
1:00 PM-2 °FFrigid.7 mph80%30.34 "HgN/A
12:00 PM-4 °FFrigid.7 mph81%30.34 "HgN/A
11:00 AM-5 °FFrigid.8 mph81%30.32 "HgN/A
10:00 AM-5 °FFrigid.8 mph81%30.31 "HgN/A
9:00 AM-7 °FFrigid.7 mph82%30.31 "HgN/A
8:00 AM-7 °FFrigid.7 mph81%30.30 "HgN/A
7:00 AM-7 °FFrigid.7 mph81%30.31 "HgN/A
6:00 AM-7 °FFrigid.7 mph81%30.33 "HgN/A
5:00 AM-8 °FFrigid.7 mph81%30.34 "HgN/A
4:00 AM-7 °FFrigid.6 mph81%30.35 "HgN/A
3:00 AM-7 °FFrigid.6 mph81%30.36 "HgN/A
2:00 AM-7 °FFrigid.8 mph82%30.36 "HgN/A
1:00 AM-7 °FFrigid.6 mph82%30.37 "HgN/A
12:00 AM-6 °FFrigid.6 mph82%30.38 "HgN/A
11:00 PM
Mon, Feb 8
-6 °FFrigid.6 mphN/A30.40 "HgN/A
10:00 PM-6 °FFrigid.7 mph82%30.38 "HgN/A
9:00 PM-5 °FFrigid.6 mph82%30.42 "HgN/A
8:00 PM-5 °FFrigid.6 mph82%30.41 "HgN/A
7:00 PM-5 °FFrigid.3 mph82%30.41 "HgN/A
6:00 PM-6 °FFrigid.2 mphN/A30.40 "HgN/A
5:00 PM-5 °FFrigid.5 mph81%30.40 "HgN/A
4:00 PM-5 °FFrigid.6 mphN/A30.41 "HgN/A
Weather by CustomWeather, © 2016

See weather overviewHow to use our weather pages